TimeCST,TemperatureF,Dew PointF,Humidity,Sea Level PressureIn,VisibilityMPH,Wind Direction,Wind SpeedMPH,Gust SpeedMPH,PrecipitationIn,Events,Conditions,WindDirDegrees,DateUTC
12:53 AM,50.0,46.9,89,30.32,10.0,NNW,6.9,-,N/A,,Clear,340,2013-12-31 06:53:00
1:53 AM,50.0,46.0,86,30.33,10.0,NNW,6.9,-,N/A,,Partly Cloudy,340,2013-12-31 07:53:00
2:13 AM,48.2,46.4,93,30.30,9.0,North,6.9,-,N/A,,Partly Cloudy,350,2013-12-31 08:13:00
2:53 AM,48.9,46.0,90,30.32,9.0,North,6.9,-,N/A,,Partly Cloudy,350,2013-12-31 08:53:00
3:53 AM,48.0,45.0,89,30.31,9.0,North,4.6,-,N/A,,Scattered Clouds,350,2013-12-31 09:53:00
4:36 AM,48.2,44.6,87,30.33,8.0,North,5.8,-,N/A,,Mostly Cloudy,350,2013-12-31 10:36:00
4:53 AM,48.0,44.1,86,30.32,9.0,North,10.4,-,N/A,,Mostly Cloudy,10,2013-12-31 10:53:00
5:53 AM,46.9,43.0,86,30.33,10.0,North,10.4,-,N/A,,Overcast,360,2013-12-31 11:53:00
6:53 AM,46.9,42.1,83,30.36,10.0,NNE,9.2,-,N/A,,Overcast,20,2013-12-31 12:53:00
7:53 AM,46.9,42.1,83,30.38,10.0,North,9.2,-,N/A,,Overcast,360,2013-12-31 13:53:00
8:53 AM,46.9,43.0,86,30.42,9.0,North,9.2,-,N/A,,Overcast,360,2013-12-31 14:53:00
9:53 AM,46.9,39.9,77,30.43,10.0,NE,8.1,-,N/A,,Mostly Cloudy,40,2013-12-31 15:53:00
10:20 AM,46.4,39.2,76,30.41,10.0,NNE,9.2,-,N/A,,Scattered Clouds,30,2013-12-31 16:20:00
10:53 AM,46.9,39.0,74,30.40,10.0,NNE,8.1,-,N/A,,Partly Cloudy,20,2013-12-31 16:53:00
11:53 AM,46.9,37.9,71,30.38,10.0,NNE,8.1,-,N/A,,Partly Cloudy,20,2013-12-31 17:53:00
12:53 PM,46.0,37.9,73,30.36,10.0,NNE,9.2,-,N/A,,Clear,20,2013-12-31 18:53:00
1:53 PM,46.0,37.9,73,30.35,10.0,NNE,6.9,-,N/A,,Overcast,20,2013-12-31 19:53:00
2:53 PM,45.0,39.0,80,30.35,10.0,North,8.1,-,N/A,,Overcast,360,2013-12-31 20:53:00
3:53 PM,44.1,39.0,82,30.38,10.0,North,8.1,-,0.00,Rain,Light Rain,350,2013-12-31 21:53:00
4:53 PM,44.1,39.0,82,30.35,10.0,NNE,5.8,-,0.00,,Mostly Cloudy,20,2013-12-31 22:53:00
5:53 PM,44.1,39.0,82,30.36,10.0,NNE,4.6,-,N/A,,Mostly Cloudy,20,2013-12-31 23:53:00
6:53 PM,44.1,39.0,82,30.36,10.0,NNE,6.9,-,0.00,,Mostly Cloudy,30,2014-01-01 00:53:00
7:53 PM,44.1,39.9,85,30.37,10.0,NNE,5.8,-,0.00,,Scattered Clouds,30,2014-01-01 01:53:00
8:53 PM,44.1,39.9,85,30.38,10.0,NNE,4.6,-,0.00,Rain,Light Rain,30,2014-01-01 02:53:00
9:53 PM,44.1,41.0,89,30.38,10.0,East,3.5,-,0.00,,Partly Cloudy,80,2014-01-01 03:53:00
10:53 PM,44.1,41.0,89,30.37,10.0,Calm,Calm,-,N/A,,Overcast,0,2014-01-01 04:53:00
11:53 PM,44.1,41.0,89,30.34,9.0,Calm,Calm,-,0.00,,Overcast,0,2014-01-01 05:53:00